This is the latest recevied weather packets stored in our database for station/object N4PWG. If no packets are shown the sender has not sent any weather packets the latest 10 day(s).
| Time | Temp. | Humidity | Pressure | Rain* | Wind** | Luminosity | Snow |
|---|---|---|---|---|---|---|---|
| 1777938829 | 26.11° C | 45% | 1025.1 hPa | 0 mm | - | 37 W/m² | - |
| 1777938526 | 26.11° C | 44% | 1025.2 hPa | 0 mm | - | 39 W/m² | - |
| 1777938224 | 26.67° C | 43% | 1025.3 hPa | 0 mm | - | 46 W/m² | - |
| 1777937920 | 26.67° C | 43% | 1025.4 hPa | 0 mm | - | 59 W/m² | - |
| 1777937616 | 26.11° C | 42% | 1025.5 hPa | 0 mm | - | 71 W/m² | - |
| 1777937313 | 26.67° C | 43% | 1025.4 hPa | 0 mm | - | 80 W/m² | - |
| 1777937010 | 27.22° C | 41% | 1025.4 hPa | 0 mm | - | 92 W/m² | - |
| 1777936707 | 27.22° C | 42% | 1025.5 hPa | 0 mm | - | 103 W/m² | - |
| 1777936403 | 27.22° C | 41% | 1025.8 hPa | 0 mm | - | 136 W/m² | - |
| 1777936099 | 27.22° C | 41% | 1025.8 hPa | 0 mm | - | 136 W/m² | - |
| 1777935798 | 27.22° C | 40% | 1025.6 hPa | 0 mm | - | 136 W/m² | - |
| 1777935496 | 27.22° C | 40% | 1025.9 hPa | 0 mm | - | 158 W/m² | - |
| 1777935192 | 27.22° C | 41% | 1025.8 hPa | 0 mm | - | 174 W/m² | - |
| 1777934889 | 27.22° C | 40% | 1025.5 hPa | 0 mm | - | 173 W/m² | - |
| 1777934586 | 27.78° C | 41% | 1025.5 hPa | 0 mm | - | 192 W/m² | - |
| 1777934283 | 27.78° C | 41% | 1025.6 hPa | 0 mm | - | 203 W/m² | - |
| 1777933978 | 27.78° C | 39% | 1025.8 hPa | 0 mm | - | 223 W/m² | - |
| 1777933675 | 27.78° C | 40% | 1025.8 hPa | 0 mm | - | 245 W/m² | - |
| 1777933372 | 28.33° C | 38% | 1025.8 hPa | 0 mm | - | 241 W/m² | - |
| 1777933070 | 28.33° C | 39% | 1025.9 hPa | 0 mm | - | 248 W/m² | - |
| 1777932767 | 28.33° C | 40% | 1025.4 hPa | 0 mm | - | 265 W/m² | - |
| 1777932463 | 28.33° C | 40% | 1025.6 hPa | 0 mm | - | 286 W/m² | - |
| 1777932160 | 28.33° C | 39% | 1025.9 hPa | 0 mm | - | 300 W/m² | - |
| 1777931858 | 28.33° C | 40% | 1025.6 hPa | 0 mm | - | 311 W/m² | - |
| 1777931554 | 28.33° C | 41% | 1025.5 hPa | 0 mm | - | 336 W/m² | - |
* Rain latest hour (hover to see other rain measurements)
** Current wind speed in m/s (hover to see current wind gust speed)